Regional Weather Roundup
Issued by NWS Charleston, SC

Current Version | Previous Version | Graphics & Text | Print | Product List | Glossary On
Versions: 1 2 3 4 5 6 7 8 9 10 11 12 13 14 15 16 17 18 19 20 21 22 23 24 25 26 27 28 29 30 31 32 33 34 35 36 37 38 39 40 41 42 43 44 45 46 47 48 49 50
000 ASUS42 KCHS 291628 RWRCHS REGIONAL WEATHER ROUNDUP NATIONAL WEATHER SERVICE CHARLESTON SC 1200 PM EDT SUN MAY 29 2016 NOTE: "FAIR" INDICATES FEW OR NO CLOUDS BELOW 12,000 FEET WITH NO SIGNIFICANT WEATHER AND/OR OBSTRUCTIONS TO VISIBILITY. NOT ALL STATIONS ARE QUALITY CONTROLLED. USE DATA WITH CAUTION... ESPECIALLY DEWPOINT OBSERVATIONS. SCZ027-030-031-034>040-042>050-291700- ...SOUTHEAST SOUTH CAROLINA... CITY SKY/WX TMP DP RH WIND PRES REMARKS N CHARLESTON LGT RAIN 76 73 91 S13 29.89R FOG WATERFRONT PRK N/A 75 73 93 S8 29.89R MOUNT PLEASANT FAIR 77 75 94 SE9 29.91F JOHNS ISLAND CLOUDY 77 75 94 S9 29.91F PINOPOLIS N/A 79 73 83 E12 29.82R MONCKS CORNER CLOUDY 73 72 94 E10 29.89F FOG SUMMERVILLE CLOUDY 72 72 100 E9G17 29.85R BEAUFORT MCAS CLOUDY 71 67 87 W14G22 29.95R BEAUFORT ARPT CLOUDY 70 68 94 W15G24 29.95F HILTON HEAD IS DRIZZLE 68 66 94 W12 29.98S WALTERBORO TSTM 72 72 100 W16G23 29.88F ALLENDALE RAIN 68 66 94 NW8G14 29.98F ...SOUTHERN MIDLANDS AND PEE DEE... CITY SKY/WX TMP DP RH WIND PRES REMARKS GEORGETOWN CLOUDY 79 72 78 SE13 29.97R KINGSTREE RAIN 79 72 78 NE8 29.94F ORANGEBURG LGT RAIN 70 67 90 N12G26 29.95F FOG BARNWELL DRIZZLE 70 70 100 NW14G30 30.01F AIKEN LGT RAIN 66 63 88 N15G26 30.09F MANNING LGT RAIN 73 72 94 E3 29.93F COLUMBIA LGT RAIN 68 64 87 N13G23 30.03S SUMTER CLOUDY 73 70 88 N16 29.96F FLORENCE PTSUNNY 81 73 76 NE15 30.00S MYRTLE BEACH PTSUNNY 82 70 65 SE12 30.00F N MYRTLE BEACH CLOUDY 80 73 79 E12G18 30.00F $$ GAZ063-065-086>088-099>101-113>116-118-119-134>141-150-291700- ...SOUTHEAST GEORGIA... CITY SKY/WX TMP DP RH WIND PRES REMARKS SAVANNAH ARPT LGT RAIN 70 66 87 NW22G32 30.02R HUNTER AAF MOSUNNY 70 70 100 W13G23 30.00R FORT STEWART RAIN 71 67 88 NW15G25 30.05R STATESBORO TSTM 64 64 98 NW12G17 30.08S SYLVANIA TSTM 66 64 92 NW18G31 30.05S CLAXTON LGT RAIN 67 65 94 W12G20 30.08F ...CSRA...CENTRAL AND FAR SOUTHEAST GEORGIA... CITY SKY/WX TMP DP RH WIND PRES REMARKS THOMSON CLOUDY 69 69 99 NE7 30.18S AUGUSTA-BUSH LGT RAIN 67 63 87 N14 30.09S AUGUSTA-DANIEL CLOUDY 68 62 81 NW9G18 30.11S SWAINSBORO RAIN 68 64 88 N5 30.12R VIDALIA CLOUDY 73 63 68 N14G21 30.10F EASTMAN CLOUDY 81 65 59 NE7 30.14S HAZLEHURST FAIR 80 62 54 N9G16 30.10F ALMA MOSUNNY 81 63 54 NW13G18 30.10S WAYCROSS CLOUDY 81 66 61 N6 30.09F JESUP PTSUNNY 73 61 64 N18G30 30.08F BAXLEY FAIR 81 61 50 N16 30.09F BRUNSWICK PTSUNNY 86 66 51 NW13G20 30.06F SAINT SIMONS MOSUNNY 80 66 62 NW15G22 30.05F $$ SCZ027-028-034-036>038-045-046-048>050-GAZ119-141-291700- ...LAKE AND SUPPLEMENTAL COASTAL OBSERVATIONS... STATION/POSITION TIME TEMP WIND PRES WAVE SWELL AIR SEA DIR/SP/G HT/PER HT/PER/DIR (UTC) (F) (DEG/KT/KT) (MB) (FT/S) (FT/S/D) WINYAH BAY NOT AVBL LAKE MURRAY 1500 67 350/ 7/ 17 1017.9S ACE BASIN NERRS NOT AVBL FORT PULASKI 1600 70 76 300/ 22/ 26 1015.9R SAPELO ISLAND 1500 77 300/ 16 1018.0R $$ ANZ835-935-AMZ111-154-330-350-352-354-370-450-454-472-291700- ...C-MAN AND BUOY OBSERVATIONS... STATION/POSITION TIME TEMP WIND PRES WAVE SWELL AIR SEA DIR/SP/G HT/PER HT/PER/DIR (UTC) (F) (DEG/KT/KT) (MB) (FT/S) (FT/S/D) BUOY 41004 1550 74 77 190/ 19/ 23 1013.8F 6/ 8 3/ 8 BUOY 41008 1550 76 76 290/ 25/ 29 1015.8F 4/ 5 2/ 80/ 8 FOLLY BEACH CMAN 1600 75 190/ 10/ 12 1013.2R CAPERS NEARSHORE 1608 73 76 190/ 14/ 17 1013.3R FRIPP NEARSHORE 1608 70 75 300/ 21/ 27 1013.4R STATION/POSITION TIME TEMP WIND PRES WAVE SWELL AIR SEA DIR/SP/G HT/PER HT/PER/DIR (UTC) (F) (DEG/KT/KT) (MB) (FT/S) (FT/S/D) 5E ST. MARYS GA 1601 78 N/A 3/ 8 FRYING PAN BUOY 1600 79 78 150/ 16/ 19 1016.3R BUOY 41025 1550 79 76 160/ 17/ 19 1019.3S 6/ 8 2/180/13 CAPE LOOKOUT NC 1600 76 140/ 12/ 13 1018.4R BUOY 41002 1550 76 76 130/ 16/ 17 1019.3F 4/ 7 2/100/ 8 BUOY 41010 1520 79 79 290/ 8/ 10 1018.4R ST AUGUSTINE FL 1600 82 79 310/ 11/ 14 1019.3F $$

USA.gov is the U.S. government's official web portal to all federal, state and local government web resources and services.